TimeEDT,TemperatureF,Dew PointF,Humidity,Sea Level PressureIn,VisibilityMPH,Wind Direction,Wind SpeedMPH,Gust SpeedMPH,PrecipitationIn,Events,Conditions,WindDirDegrees,DateUTC
12:00 AM,60.1,55.0,83,29.96,-9999.0,Calm,Calm,-,N/A,,Mostly Cloudy,0,2013-05-10 04:00:00
1:00 AM,59.0,55.0,87,29.96,-9999.0,Calm,Calm,-,N/A,,Partly Cloudy,0,2013-05-10 05:00:00
2:00 AM,57.9,53.1,84,29.96,-9999.0,Calm,Calm,-,N/A,,Clear,0,2013-05-10 06:00:00
3:00 AM,57.0,51.1,81,29.96,-9999.0,Calm,Calm,-,N/A,,Clear,0,2013-05-10 07:00:00
4:06 AM,55.0,50.0,83,29.96,-9999.0,Calm,Calm,-,N/A,,Mostly Cloudy,0,2013-05-10 08:06:00
4:28 AM,55.4,48.2,77,29.97,-9999.0,Calm,Calm,-,N/A,,Scattered Clouds,0,2013-05-10 08:28:00
5:00 AM,59.0,51.1,75,29.98,-9999.0,WNW,3.5,-,N/A,,Clear,290,2013-05-10 09:00:00
6:00 AM,57.0,53.1,87,29.99,-9999.0,Calm,Calm,-,N/A,,Clear,0,2013-05-10 10:00:00
7:00 AM,60.1,55.0,83,30.00,-9999.0,Calm,Calm,-,N/A,,Clear,0,2013-05-10 11:00:00
8:00 AM,75.0,57.9,55,30.00,-9999.0,NW,4.6,-,N/A,,Clear,310,2013-05-10 12:00:00
9:00 AM,79.0,59.0,50,30.00,-9999.0,WNW,3.5,-,N/A,,Clear,290,2013-05-10 13:00:00
10:00 AM,82.9,55.0,38,29.99,-9999.0,Calm,Calm,-,N/A,,Clear,0,2013-05-10 14:00:00
11:00 AM,89.1,53.1,29,29.99,-9999.0,West,5.8,-,N/A,,Clear,280,2013-05-10 15:00:00
12:00 PM,90.0,53.1,28,29.98,-9999.0,WSW,11.5,-,N/A,,Clear,240,2013-05-10 16:00:00
1:00 PM,91.0,52.0,26,29.97,-9999.0,Calm,Calm,-,N/A,,Clear,0,2013-05-10 17:00:00
2:00 PM,91.0,53.1,27,29.96,-9999.0,WNW,10.4,17.3,N/A,,Clear,290,2013-05-10 18:00:00
3:00 PM,93.0,48.9,22,29.94,-9999.0,Variable,6.9,-,N/A,,Clear,0,2013-05-10 19:00:00
4:00 PM,95.0,57.0,28,29.93,-9999.0,SSE,8.1,-,N/A,,Clear,150,2013-05-10 20:00:00
5:00 PM,89.1,57.0,34,29.93,-9999.0,SE,12.7,-,N/A,,Clear,140,2013-05-10 21:00:00
6:00 PM,86.0,57.9,38,29.92,-9999.0,SSE,10.4,-,N/A,,Clear,150,2013-05-10 22:00:00
7:00 PM,82.9,57.9,42,29.92,-9999.0,SSE,6.9,-,N/A,,Clear,150,2013-05-10 23:00:00
8:00 PM,79.0,57.9,48,29.93,-9999.0,SSE,5.8,-,N/A,,Clear,160,2013-05-11 00:00:00
9:00 PM,77.0,55.9,48,29.93,-9999.0,South,6.9,-,N/A,,Clear,180,2013-05-11 01:00:00
10:00 PM,75.0,55.0,50,29.93,-9999.0,SSE,6.9,-,N/A,,Clear,150,2013-05-11 02:00:00
11:00 PM,75.9,57.0,52,29.90,-9999.0,South,8.1,-,N/A,,Clear,190,2013-05-11 03:00:00